Skip Page Navigation
NASA JPL Caltech
NASA Logo - Jet Propulsion Laboratory + View the NASA Portal
+ Center for Near-Earth Object Studies
JPL Home Earth Solar System Stars & Galaxies Technology
JPL Solar System Dynamics
BODIES ORBITS EPHEMERIDES TOOLS PHYSICAL DATA DISCOVERY FAQ SITE MAP
JPL Small-Body Database Browser
Search: [ help ]  
130007 Frankteti (1999 VC45)
Classification: Main-belt Asteroid          SPK-ID: 2130007
Ephemeris | Orbit Diagram | Orbital Elements | Mission Design | Physical Parameters | Discovery Circumstances ]

[ hide orbit diagram ]

For accurate long-term ephemerides, please instead use our Horizons system.This orbit viewer was implemented using two-body methods, and hence should not be used for determining accurate long-term trajectories (over several years or decades) or planetary encounter circumstances.


[ revert to old Java-based viewer ]

Orbital Elements at Epoch 2459000.5 (2020-May-31.0) TDB
Reference: JPL 22 (heliocentric ecliptic J2000)
 Element Value Uncertainty (1-sigma)   Units 
e .1561128573806203 4.5694e-08  
a 2.790764181866213 2.4806e-08 au
q 2.355090011159589 1.2752e-07 au
i 7.843411846660262 7.0954e-06 deg
node 5.553832060161661 3.0826e-05 deg
peri 60.15622582106872 4.0069e-05 deg
M 121.5971673924267 2.6518e-05 deg
tp 2458425.319578362322
(2018-Nov-02.81957836)
0.00012132 TDB
period 1702.876442189725
4.66
2.2705e-05
6.216e-08
d
yr
n .2114069999917768 2.8187e-09 deg/d
Q 3.226438352572837 2.8679e-08 au
  Orbit Determination Parameters
   # obs. used (total)      393  
   data-arc span      7532 days (20.62 yr)  
   first obs. used      1999-10-02  
   last obs. used      2020-05-16  
   planetary ephem.      DE431  
   SB-pert. ephem.      SB431-N16  
   condition code      0  
   norm. resid. RMS      .56366  
   source      ORB  
   producer      Otto Matic  
   solution date      2020-Nov-12 16:44:38  

Additional Information
 Earth MOID = 1.37983 au 
 Jupiter MOID = 2.14924 au 
 T_jup = 3.298 
[ show covariance matrix ]

Ephemeris | Orbit Diagram | Orbital Elements | Mission Design | Physical Parameters | Discovery Circumstances ]

Physical Parameter Table
Parameter Symbol Value Units Sigma Reference Notes
absolute magnitude H 15.7   n/a MPO432778  
diameter diameter 2.380 km 0.546 urn:nasa:pds:neowise_diameters_albedos::2.0[mainbelt] (http://adsabs.harvard.edu/abs/2011ApJ...741...68M)  
rotation period rot_per 7.017 h n/a LCDB (Rev. 2019-August); Warner et al., 2009 Result based on less than full coverage, so that the period may be wrong by 30 percent or so.
Published Reference List:
[Waszczak, A.; Chang, C.-K.; Ofeck, E.O.; Laher, F.; et al. (2015) Astron. J. 150, A75.]
geometric albedo albedo 0.179   0.093 urn:nasa:pds:neowise_diameters_albedos::2.0[mainbelt] (http://adsabs.harvard.edu/abs/2011ApJ...741...68M)  

130007 Frankteti           Discovered 1999 Nov. 4 by the Catalina Sky Survey.
Frank Teti (b. 1966) is the Program Manager for the development of the OSIRIS-REx Laser Altimeter. Prior to this, he was the Manager of Autonomous Robotics at MDA and focused on commercial and civilian missions for lunar exploration/exploitation and orbital debris removal.
NOTE: some special characters may not display properly (any characters within {} are an attempt to place the proper accent above a character)
Reference: MPC batch dated 2016-11-14Last Updated: 2016-11-20
Ephemeris | Orbit Diagram | Orbital Elements | Mission Design | Physical Parameters | Discovery Circumstances ]
ABOUT SSD CREDITS/AWARDS PRIVACY/COPYRIGHT GLOSSARY LINKS
FirstGov 2020-Dec-03 21:51 UT
(server date/time)  
NASA Home Page
Site Manager:   Ryan S. Park
Webmaster  Alan B. Chamberlin